Lucas Tedeschi fue el más veloz en la segunda tanda de entrenamientos de la Clase 2 del Turismo Nacional, que se llevó a cabo en Toay, en el marco de la 11ª fecha de la temporada. El piloto de Las Rosas logró un registro de 1:24.576 con el Toyota Etios que alista el Giacone Competición y mejoró el tiempo que había marcado Pablo Ortega en el ensayo inicial, de cara a la primera clasificación.

En el trazado pampeano, el segundo puesto lo ocupó Maximiliano Bestani, a 5 centésimas; mientras que Ortega culminó en la tercera colocación, a 12 centésimas de la punta.

Por su parte, los diez primeros lugares los completaron Juan Ignacio Torres, Christian Abdala, Renzo Blotta, Lucas Yerobi, Marco Veronesi, Marcos Fernández y Sergio Fernández.

    2do. Entrenamiento TN Clase 2 – Toay    

Pos. Piloto Marca Vtas. Tiempo Dif.
1 4 LUCAS TEDESCHI TOYOTA ETIOS 14 1:24.576
2 12 MAXIMILIANO BESTANI FIESTA KINETIC 12 1:24.633 0.057
3 114 PABLO ORTEGA FIAT ARGO 4 1:24.696 0.120
4 199 JUAN I. TORRES CHEVROLET CORSA 8 1:24.834 0.258
5 9 CHRISTIAN ABDALA TOYOTA ETIOS 11 1:24.842 0.266
6 89 RENZO BLOTTA TOYOTA ETIOS 11 1:25.008 0.432
7 84 LUCAS YEROBI FIESTA KINETIC 9 1:25.033 0.457
8 79 MARCO VERONESI TOYOTA ETIOS 9 1:25.043 0.467
9 22 MARCOS FERNANDEZ NISSAN MARCH 13 1:25.136 0.560
10 35 SERGIO FERNANDEZ NISSAN MARCH 14 1:25.143 0.567
11 14 IGNACIO PROCACITTO VW TREND 12 1:25.217 0.641
12 80 JUAN I. CANELA VW TREND 13 1:25.275 0.699
13 2 EMANUEL ABDALA FIESTA KINETIC 10 1:25.329 0.753
14 3 GERONIMO NUÑEZ TOYOTA ETIOS 12 1:25.370 0.794
15 86 FACUNDO DELLA MOTTA TOYOTA ETIOS 10 1:25.450 0.874
16 150 JUAN MARTIN ELUCHANS NISSAN MARCH 7 1:25.464 0.888
17 8 SEBASTIAN PEREZ CHEVROLET ONIX 13 1:25.501 0.925
18 28 MATEO NUÑEZ NISSAN MARCH 11 1:25.510 0.934
19 61 FACUNDO BUSTOS VW TREND 13 1:25.519 0.943
20 113 CHRISTIAN BODRATO MIONETTO TOYOTA ETIOS 11 1:25.522 0.946
21 82 JUAN PABLO AQUILES TOYOTA ETIOS 13 1:25.575 0.999
22 36 SANDRO ABDALA RENAULT CLIO 8 1:25.609 1.033
23 37 GABRIEL SCORDIA FIAT ARGO 11 1:25.717 1.141
24 121 NAZARENO BEGUIRISTAIN TOYOTA ETIOS 11 1:25.804 1.228
25 78 ROBERTO LUNA VW TREND 12 1:25.854 1.278
26 15 MIGUEL CIAURRO VW TREND 12 1:25.869 1.293
27 55 MARCELO GUEVARA NISSAN MARCH 9 1:25.900 1.324
28 112 MATIAS SIGNORELLI FIAT ARGO 11 1:25.907 1.331
29 16 DIEGO LEANEZ TOYOTA ETIOS 11 1:25.973 1.397
30 116 ALEJANDRO TORRISI NISSAN MARCH 12 1:26.010 1.434
31 21 FERNANDO GOMEZ FREDES TOYOTA ETIOS 10 1:26.197 1.621
32 10 ALEJO BORGIANI VW TREND 5 1:26.271 1.695
33 7 FACUNDO LEANEZ TOYOTA ETIOS 10 1:26.413 1.837
34 30 VALDERREY ALEJANDRO TOYOTA ETIOS 10 1:26.429 1.853
35 98 ALEX CONCI FIESTA KINETIC 10 1:26.489 1.913
36 154 FACUNDO ROTONDO FIESTA KINETIC 11 1:26.907 2.331
37 181 DIEGO SEGOVIA FIESTA KINETIC 11 1:27.890 3.314

S.B